Flag for Canada Weather past 2 weeks in Red Deer, Alberta, Canada

Now
-4 °F

More clouds than sun.


Feels Like: -4 °F
Forecast: -12 / 11 °F
Wind: 2 mph from Southwest

Location: Red Deer

Current Time: Feb 1, 2015 at 1:22:42 PM

Latest Report: Feb 1, 2015 at 12:00 PM


Visibility: 10 mi

Pressure: 30.29 "Hg

Humidity: 84%

Dew point: -8 °F

Location of Red DeerLocation

Historic Weather in Red Deer — Graph

°F

Red Deer temperature yesterday

Maximum temperature yesterday: 12 °F (at 12:00 AM)
Minimum temperature yesterday: -8 °F (at 7:00 PM)
Average temperature yesterday: 3 °F

Past Weeks' High & Low Weather Summary

 TemperatureHumidityPressure
High46 °F (Jan 25, 3:00 PM)100% (Jan 27, 1:00 AM)30.65 "Hg (Jan 27, 1:00 AM)
Low-17 °F (Feb 1, 7:00 AM)44% (Jan 19, 7:00 PM)29.56 "Hg (Jan 18, 2:00 PM)
Average25 °F77%30.11 "Hg
* Reported Jan 17 12:00 Noon — Feb 1 12:00 Noon, Red Deer, Weather by CustomWeather, © 2014

Note: Actual official high and low records may vary slightly from our data, if they occured in-between our weather recording intervals... More about our weather records

Advertising

Red Deer weather history for previous 24 hours

 ConditionsComfort  
Time TempWeatherWind HumidityBarometerVisibility
12:00 PM
Feb 1
-4 °FMore clouds than sun.2 mph84%30.29 "Hg10 mi
11:00 AM-8 °FBroken clouds.No wind84%30.32 "Hg10 mi
10:00 AM-9 °FPartly sunny.2 mph77%30.34 "Hg10 mi
9:00 AM-11 °FPartly sunny.5 mph76%30.35 "Hg12 mi
8:00 AM-13 °FPassing clouds.3 mph76%30.38 "Hg15 mi
7:00 AM-17 °FPassing clouds.3 mph76%30.42 "Hg15 mi
6:00 AM-15 °FPassing clouds.5 mph76%30.44 "Hg15 mi
5:00 AM-13 °FPassing clouds.5 mph76%30.43 "Hg15 mi
4:00 AM-13 °FClear.5 mph76%30.47 "Hg15 mi
3:00 AM-11 °FClear.5 mph76%30.49 "Hg15 mi
2:00 AM-9 °FClear.6 mph77%30.51 "Hg15 mi
1:00 AM-15 °FClear.2 mph76%30.54 "Hg15 mi
12:00 AM-8 °FClear.5 mph84%30.56 "Hg15 mi
11:00 PM
Jan 31
-4 °FClear.5 mph77%30.55 "Hg15 mi
10:00 PM-4 °FClear.2 mph77%30.57 "Hg15 mi
9:00 PM-6 °FClear.2 mph84%30.58 "Hg15 mi
8:00 PM-4 °FPassing clouds.3 mph84%30.59 "Hg15 mi
7:00 PM-8 °FPassing clouds.6 mph84%30.61 "Hg15 mi
6:00 PM0 °FPassing clouds.6 mph84%30.61 "Hg15 mi
5:00 PM3 °FPartly sunny.8 mph78%30.60 "Hg15 mi
4:00 PM3 °FScattered clouds.9 mph78%30.60 "Hg15 mi
3:00 PM5 °FPassing clouds.6 mph78%30.60 "Hg15 mi
2:00 PM5 °FSnow flurries. Passing clouds.5 mph78%30.61 "Hg15 mi
1:00 PM5 °FSnow flurries. Partly sunny.2 mph78%30.63 "Hg10 mi
Weather by CustomWeather, © 2014

See weather overviewHow to use our weather pages